Regional Weather Roundup
Issued by NWS

Home | Current Version | Previous Version | Text Only | Print | Product List | Glossary On
Versions: 1 2 3 4 5 6 7 8 9 10 11 12 13 14 15 16 17 18 19 20 21 22 23 24 25 26 27 28 29 30 31 32 33 34 35 36 37 38 39 40 41 42 43 44 45 46 47 48 49 50
000
ASUS45 KBOI 251410
RWRID

IDAHO REGIONAL WEATHER ROUNDUP
NATIONAL WEATHER SERVICE BOISE ID
800 AM MDT WED MAY 25 2016

NOTE: "FAIR" INDICATES FEW OR NO CLOUDS BELOW 12000 FEET
WITH NO SIGNIFICANT WEATHER AND/OR OBSTRUCTIONS TO VISIBILITY

IDZ012-014-251500-
SOUTHWEST IDAHO


CITY           SKY/WX    TMP DP  RH WIND       PRES   REMARKS
BOISE          MOSUNNY   52  42  69 NW7       29.99R
CALDWELL       MOSUNNY   52  43  71 W7        30.00R
MOUNTAIN HOME  PTSUNNY   54  44  69 W7        30.00R
$$

IDZ016-017-251500-
SOUTHCENTRAL IDAHO


CITY           SKY/WX    TMP DP  RH WIND       PRES   REMARKS
BURLEY         CLOUDY    53  40  61 SW9       29.99R
JEROME         PTSUNNY   51  41  68 W9        30.00R
TWIN FALLS     CLOUDY    54  41  61 W13       30.01R
$$

IDZ019>023-251500-
SOUTHEAST IDAHO


CITY           SKY/WX    TMP DP  RH WIND       PRES   REMARKS
IDAHO FALLS    CLOUDY    47  44  90 N3        30.00R
POCATELLO      CLOUDY    52  43  71 SW9       30.00R
REXBURG        CLOUDY    44  41  89 NE6       30.00S
$$

IDZ006-010-011-018-031-032-251500-
CENTRAL IDAHO MOUNTAINS


CITY           SKY/WX    TMP DP  RH WIND       PRES   REMARKS
MCCALL         SUNNY     45  38  76 CALM      30.00R
HAILEY         MOSUNNY   45  39  81 NW7       30.02R
STANLEY          N/A     39  32  76 CALM      30.04R
SALMON         PTSUNNY   45  37  76 N5        30.00R
CHALLIS        CLOUDY    45  40  82 CALM      30.01R
$$

IDZ002-004-006-007-026-251500-
NORTHERN IDAHO


CITY           SKY/WX    TMP DP  RH WIND       PRES   REMARKS
LEWISTON       CLOUDY    51  47  86 CALM      30.01R
LOWELL           N/A     49  44  83 CALM      30.05R
COEUR D`ALENE  PTSUNNY   48  46  93 SE9       29.97R
MULLAN PASS    FOG       39  39 100 NW5       30.01S VSB<1/4
$$



USA.gov is the U.S. government's official web portal to all federal, state and local government web resources and services.